Location: Pl�tzky
(52.0521°N, 11.8020°E)
Time: 05:41:49
(UTC+00:00)

Envisat - Visible Passes

Search period start: 18 January 2020 00:00
Search period end: 28 January 2020 00:00
Orbit: 764 x 766 km, 98.1° (Epoch: 17 January)

Date Brightness Start Highest point End Pass type
(mag) Time Alt. Az. Time Alt. Az. Time Alt. Az.
18 Jan 4.4 05:31:31 10° NNE 05:36:21 42° E 05:41:09 10° SSE visible
18 Jan 3.0 16:51:31 10° SSE 16:56:36 88° WSW 17:01:44 10° NNW visible
18 Jan 6.0 18:33:32 10° WSW 18:36:24 15° W 18:39:17 10° NW visible
19 Jan 5.6 04:55:19 10° NE 04:59:15 22° E 05:03:09 10° SE visible
19 Jan 3.2 16:15:02 10° SE 16:19:55 49° ENE 16:24:49 10° N visible
19 Jan 5.0 17:54:48 10° SSW 17:59:11 29° W 18:03:35 10° NNW visible
20 Jan 6.3 04:20:32 10° ENE 04:21:55 11° E 04:23:19 10° E visible
20 Jan 3.5 05:56:51 10° NNE 06:01:57 67° ESE 06:07:00 10° S visible
20 Jan 3.8 17:17:10 10° S 17:22:09 56° W 17:27:11 10° NNW visible
21 Jan 4.8 05:20:20 10° NNE 05:24:59 34° E 05:29:36 10° SSE visible
21 Jan 2.9 16:40:15 10° SSE 16:45:19 77° ENE 16:50:26 10° NNW visible
21 Jan 5.8 18:21:29 10° SW 18:24:58 18° W 18:28:27 10° NW visible
22 Jan 5.9 04:44:21 10° NE 04:47:49 18° E 04:51:16 10° SE visible
22 Jan 3.0 06:22:21 10° NNE 06:27:27 78° WNW 06:32:32 10° SSW visible
22 Jan 4.7 17:43:10 10° SSW 17:47:47 35° W 17:52:27 10° NNW visible
23 Jan 3.8 05:45:36 10° NNE 05:50:38 55° E 05:55:36 10° S visible
23 Jan 3.4 17:05:46 10° S 17:10:49 68° WSW 17:15:56 10° NNW visible
23 Jan 6.3 18:49:23 10° W 18:50:51 11° W 18:52:18 10° WNW visible
24 Jan 5.2 05:09:11 10° NNE 05:13:36 29° E 05:17:58 10° SSE visible
24 Jan 3.0 16:29:02 10° SSE 16:34:03 64° ENE 16:39:06 10° N visible
24 Jan 5.5 18:09:36 10° SW 18:13:31 22° W 18:17:29 10° NW visible
25 Jan 6.1 04:33:30 10° NE 04:36:22 15° E 04:39:13 10° ESE visible
25 Jan 3.1 06:11:02 10° NNE 06:16:10 87° ESE 06:21:16 10° SSW visible
25 Jan 4.3 17:31:37 10° SSW 17:36:25 42° W 17:41:16 10° NNW visible
26 Jan 4.3 05:34:22 10° NNE 05:39:17 45° E 05:44:09 10° S visible
26 Jan 3.1 16:54:25 10° SSE 16:59:31 82° WSW 17:04:38 10° NNW visible
26 Jan 6.1 18:36:47 10° WSW 18:39:22 14° W 18:41:57 10° NW visible
27 Jan 5.5 04:58:06 10° NE 05:02:12 24° E 05:06:15 10° SE visible
27 Jan 3.2 16:17:52 10° SE 16:22:48 53° ENE 16:27:45 10° N visible
27 Jan 5.2 17:57:50 10° SSW 18:02:07 27° W 18:06:25 10° NW visible
